Погода Усановы

Погода Усановы : погода сейчас, прогноз погоды и архив. Всё, что Вы хотите узнать о погоде Усановы!

Поиск расширенной информации на нашем сайте:

Другие новости

Новости СМИ2

Главная страница сайта

Новости сайта

03.07.2017

Напоминаем, что на нашем специализированном сайте Метеоцентр.Азия вы можете получить высокодетализированные автоматические прогнозы погоды по пунктам России, СНГ и мира в авиационном формате (включающие направление и скорость ветра, видимость, явления погоды, количество и форму облачности, нижнюю и верхнюю границу облачности).

Рекомендуем: Генераторы бензиновые купить генераторы.

Погода Усановы - сегодня

Время (UTC), дата Ветер
(°,м/с) 
Видим.   Явления Облачность Т
(°С)
Тd
(°С)
f(%) Тe
(°С)
Pmin
(гПа)
dP
(гПа)
Po
(мм)
O2
(г/м3)
Тmin Tmax R s Состояние
почвы
15 13.08.18 тихо ()   10 км    ясно 
+14.6 +13.2 91 +20  1011.3  0.4  753  285    +21.2       
18 13.08.18 140 (ЮВ) 10 км    ясно 
+11.2 +10.7 97 +14  1011.9  0.4  753  290           
21 13.08.18 140 (ЮВ) 10 км    ясно 
+10.8 +10.6 99 +14  1012.2  0.3  754  290           
00 14.08.18 150 (ЮВ) 10 км    3/0 верхняя 
[Ci fib]
+11.9 +11.7 99 +16  1012  -0.2  753  289           
03 14.08.18 150 (ЮВ) 10 км    4/4 300 м кучево-дожд. 
[Cb cap]
+15.7 +14.5 93 +24  1011.7  -0.2  753  284  +10.4        влажная 
06 14.08.18 160 (Ю) 10 км    ясно 
+23.9 +17.7 68 +37  1011.2  -0.3  753  275           
09 14.08.18 200 (Ю) 10 км    1/1 600 м 
[Cu med, cong]
+28.1 +17.1 51 +41  1010.2  -0.9  752  271           
12 14.08.18 тихо ()   10 км  гроза без осадков{ливн. осадки}  6/6 300 м кучево-дожд. 
[Cb cap]
+23.2 +20.2 83 +42  1009.6  -0.7  752  274           
15 14.08.18 180 (Ю) 10 км  {гроза}  5/3 300 м кучево-дожд., верхняя 
[Cb cap|Ci fib]
+23.6 +17.7 70 +37  1010  0.4  752  275    +28.9  0.7     
18 14.08.18 210 (ЮЗ) 10 км  гроза, ливневой дождь  10/10 300 м кучево-дожд. 
[Cb cap]
+18.8 +17.1 90 +32  1011.5  1.3  753  280           
21 14.08.18 120 (ЮВ) 10 км  в посл. час ливневой дождь{гроза}  10/10 300 м кучево-дожд. 
[Cb cap]
+17.6 +17.1 97 +31  1011.4  -0.1  753  281           
00 15.08.18 140 (ЮВ) 10 км  {гроза, ливн. осадки}  9/9 300 м кучево-дожд. 
[Cb cap]
+17.5 +17.1 97 +31  1010.5  -0.9  752  281           
03 15.08.18 150 (ЮВ) 10 км    9/9 300 м кучево-дожд. 
[Cb cap]
+17.8 +16.5 92 +30  1010.6  0.1  753  281  +17.3      влажная 
06 15.08.18 190 (Ю) 10 км    8/4 600 м верхняя 
[Sc|Ci fib]
+21.8 +16.7 73 +33  1010.3  -0.2  752  277           
09 15.08.18 200 (Ю) 10 км  слаб. ливневой дождь  10/10 300 м кучево-дожд. 
[Cb cap]
+20.4 +17.8 85 +34  1010.7  0.4  753  278           
12 15.08.18 180 (Ю) 10 км  {ливн. осадки}  8/6 300 м кучево-дожд., верхняя 
[Cb cap|Ci fib]
+24.1 +18.2 70 +39  1009.3  -1.3  752  274           
18 15.08.18 150 (ЮВ) 10 км    3/3 300 м кучево-дожд. 
[Cb cap]
+14.3 +13.6 96 +22  1008.9  -0.2  751  285           
21 15.08.18 160 (Ю) 10 км    1/1 300 м кучево-дожд. 
[Cb cap]
+13.5 +12.9 96 +20  1008.2  -0.7  751  286           
00 16.08.18 150 (ЮВ) 10 км    8/8 600 м 
[Sc]
+14.2 +13.2 94 +21  1007.7  -0.4  750  285           
03 16.08.18 170 (Ю) 10 км    9/8 300 м кучево-дожд., верхняя 
[Cb cap|Ci fib]
+16.8 +14.6 87 +26  1008.1  0.5  751  282  +13.2        влажная 
06 16.08.18 300 (СЗ) 10 км  гроза без осадков{ливн. осадки}  9/9 300 м кучево-дожд. 
[Cb cap]
+17.8 +16.4 92 +30  1008.2  0.1  751  280           
09 16.08.18 тихо ()   10 км  слаб. ливневой дождь{гроза}  10/10 300 м кучево-дожд. 
[Cb cap]
+20.6 +17.7 83 +34  1009.1  0.9  752  278           
12 16.08.18 330 (СЗ) 10 км  {гроза, ливн. осадки}  10/10 300 м кучево-дожд. 
[Cb cap]
+17.4 +15.7 90 +29  1010  0.8  752  282           
18 16.08.18 тихо ()   10 км    9/9 300 м кучево-дожд. 
[Cb cap]
+13 +12.7 98 +18  1010.5  0.3  752  287           
21 16.08.18 тихо ()   10 км    9/9 300 м кучево-дожд. 
[Cb cap]
+11.5 +11.3 99 +14  1010.4  0.1  752  289           
Время (UTC), дата Ветер
(°,м/с) 
Видим.   Явления Облачность Т
(°С)
Тd
(°С)
f(%) Тe
(°С)
Pmin
(гПа)
dP
(гПа)
Po
(мм)
O2
(г/м3)
Тmin Tmax R s Состояние
почвы

Для получения пояснительной информации подведите курсор к названию столбца.

ПОГОДА Усановы - архив

Всё, что Вы хотите узнать о погоде Усановы - удобно и подробно!

Выберите нужную дату (начиная с 1 января 2015* года) и нажмите кнопку "Найти".
Будут отображены архивные сводки погоды по пункту Усановы, начиная с указанной даты.


Отображать данные в формате CSV (для использования в таблицах Excel)


Внимание! Наш архив погоды предназначен исключительно для личного некоммерческого использования в познавательных целях. Если Вам необходимы официальные справки о состоянии погоды (для производственных, юридических, коммерческих и т.п. целей), обращайтесь в органы Росгидромета.

*Примечание: данная дата относится к архиву по метеостанциям СССР (Россия, СНГ, Балтия).
Архив по метеостанциям Зарубежной Европы и Азии (кроме Китая) хранится 10 дней, по другим регионам земного шара (Китай, Африка, Америка, Австралия, Океания) - 1 день.

Усановы - район местоположения метеостанции


Название, широта, долгота, высота метеостанции:
Усановы 59.5°ш. 73.4°д. 82 м над ур. моря [Российская Федерация]

Дополнительная информация

В oтличие oт бoльшинства пoгoдных сайтoв мы публикуем пoдрoбную метеoинфoрмацию в детальнoм прoфессиoнальнoм фoрмате.

Характеристики температуры и влажнoсти вoздуха измеряются на высoте 2 м в тени вдали oт зданий и деревьев.
Скoрoсть ветра измеряется на высoте 10 м (на урoвне рoста челoвека скoрoсть ветра ниже в 1.5-2 раза). Если метеoстанция нахoдится в гoрoде или в лесу, тo скoрoсть ветра занижена на 2-4 м/с пo сравнению с oткрытым местoм. Скoрoсть ветра над акватoриями крупных рек и oзёр, а также на вершинах хoлмoв на 2-5 м/с выше, чем в oбычных услoвиях.
Атмoсфернoе давление в разных тoчках местнoсти мoжет значительнo oтличаться oт давления на метеoстанции, в зависимoсти oт услoвий рельефа (при пoдъёме на 10 м давление пoнижается примернo на 1 мм рт.ст.).